Location: Dal�� Lhota
(48.7500°N, 14.0167°E)
Time: 02:05:45
(UTC+00:00)

Cosmos 1892 Rocket - Pass Details

Date: 24 September 2020
Orbit: 606 x 633 km, 82.5° (Epoch: 29 October)

Event Time Altitude Azimuth Distance (km) Brightness Sun altitude
Rises 18:44:27 0° 354° (N) 2,877 7.3 -18.2°
Reaches altitude 10° 18:46:45 10° 1° (N) 1,969 6.4 -18.6°
Maximum altitude 18:50:58 47° 76° (ENE) 811 3.8 -19.2°
Enters shadow 18:51:25 45° 96° (E) 833 3.7 -19.3°
